Date String (YYYY-MM-DD hh:mm:ss) UTC,Instrument flags,Ambient pressure (hPa),Sample flow (lpm),Bypass flow (lpm),Sample temperature (°C),Ambient temperature (°C),ASC tube jacket temperature (°C),LED temperature (°C),Box temperature (°C),Sample RH (%),Span deviation,Mass concentration (μg/m³),Mass concentration (μg/m³),Mass concentration (μg/m³)
DateTimeUTC,F1_M11,P_M11,Q1_M11,Q2_M11,T1_M11,T2_M11,T3_M11,T4_M11,T5_M11,U1_M11,ZSPAN_M11,X0_M11,X2_M11,X1_M11
2021-11-18 20:00:00,,0829.6,5.01,0.00,24.4,23.5,00.0,33.3,26.2,08.2,0000.0,0014.93,0005.87,0004.69
2021-11-18 20:01:00,,0829.7,4.99,0.00,24.4,23.5,00.0,33.3,26.2,08.1,0000.0,0014.64,0005.83,0004.65
2021-11-18 20:02:00,,0829.6,5.00,0.00,24.4,23.5,00.0,33.3,26.2,08.1,0000.0,0015.15,0005.79,0004.63
2021-11-18 20:03:00,,0829.6,5.00,0.00,24.4,23.5,00.0,33.3,26.2,08.1,0000.0,0014.88,0005.76,0004.58
2021-11-18 20:04:00,,0829.5,5.00,0.00,24.4,23.5,00.0,33.3,26.2,08.2,0000.0,0016.12,0005.70,0004.55
2021-11-18 20:05:00,,0829.5,5.01,0.00,24.4,23.5,00.0,33.3,26.2,08.3,0000.0,0015.69,0005.70,0004.52
2021-11-18 20:06:00,,0829.7,4.99,0.00,24.4,23.6,00.0,33.3,26.2,08.2,0000.0,0015.31,0005.68,0004.49
2021-11-18 20:07:00,,0829.6,5.00,0.00,24.4,23.6,00.0,33.3,26.2,08.2,0000.0,0015.16,0005.66,0004.47
2021-11-18 20:08:00,,0829.7,5.01,0.00,24.4,23.6,00.0,33.3,26.3,08.2,0000.0,0015.19,0005.61,0004.45
2021-11-18 20:09:00,,0829.6,5.00,0.00,24.4,23.6,00.0,33.3,26.2,08.2,0000.0,0016.49,0005.59,0004.45
2021-11-18 20:10:00,,0829.5,4.99,0.00,24.4,23.6,00.0,33.3,26.3,08.2,0000.0,0017.15,0005.57,0004.44
2021-11-18 20:11:00,,0829.6,5.01,0.00,24.4,23.6,00.0,33.3,26.3,08.2,0000.0,0017.87,0005.52,0004.43
2021-11-18 20:12:00,,0829.5,4.99,0.00,24.4,23.6,00.0,33.4,26.3,08.0,0000.0,0017.97,0005.46,0004.43
2021-11-18 20:13:00,,0829.5,5.00,0.00,24.4,23.6,00.0,33.4,26.3,08.0,0000.0,0017.45,0005.45,0004.43
2021-11-18 20:14:00,,0829.4,4.99,0.00,24.4,23.6,00.0,33.4,26.3,08.1,0000.0,0017.43,0005.45,0004.42
2021-11-18 20:15:00,,0829.5,5.00,0.00,24.4,23.6,00.0,33.4,26.3,08.0,0000.0,0016.43,0005.46,0004.42
2021-11-18 20:16:00,,0829.5,5.00,0.00,24.4,23.6,00.0,33.4,26.3,08.0,0000.0,0016.75,0005.44,0004.41
2021-11-18 20:17:00,,0829.6,5.01,0.00,24.4,23.6,00.0,33.4,26.3,08.0,0000.0,0016.61,0005.42,0004.40
2021-11-18 20:18:00,,0829.6,5.00,0.00,24.4,23.6,00.0,33.4,26.3,08.0,0000.0,0016.51,0005.46,0004.39
2021-11-18 20:19:00,,0829.5,5.00,0.00,24.4,23.6,00.0,33.4,26.3,08.1,0000.0,0016.89,0005.46,0004.39
2021-11-18 20:20:00,,0829.3,5.00,0.00,24.4,23.6,00.0,33.4,26.3,08.1,0000.0,0015.73,0005.44,0004.37
2021-11-18 20:21:00,,0829.2,5.00,0.00,24.4,23.6,00.0,33.4,26.3,08.1,0000.0,0015.40,0005.42,0004.35
2021-11-18 20:22:00,,0829.3,4.99,0.00,24.4,23.6,00.0,33.4,26.3,08.1,0000.0,0014.86,0005.38,0004.32
2021-11-18 20:23:00,,0829.3,5.00,0.00,24.5,23.6,00.0,33.4,26.3,08.1,0000.0,0014.68,0005.36,0004.31
2021-11-18 20:24:00,,0829.2,4.99,0.00,24.5,23.6,00.0,33.4,26.3,08.1,0000.0,0014.55,0005.38,0004.29
2021-11-18 20:25:00,,0829.3,5.00,0.00,24.4,23.6,00.0,33.4,26.3,08.0,0000.0,0015.68,0005.39,0004.29
2021-11-18 20:26:00,,0829.2,4.99,0.00,24.4,23.6,00.0,33.4,26.3,08.0,0000.0,0014.90,0005.34,0004.30
2021-11-18 20:27:00,,0829.3,5.00,0.00,24.4,23.6,00.0,33.4,26.3,08.0,0000.0,0014.25,0005.32,0004.30
2021-11-18 20:28:00,,0829.3,5.00,0.00,24.4,23.6,00.0,33.4,26.3,08.0,0000.0,0014.36,0005.34,0004.30
2021-11-18 20:29:00,,0829.3,5.00,0.00,24.4,23.6,00.0,33.4,26.3,08.0,0000.0,0014.26,0005.32,0004.30
2021-11-18 20:30:00,,0829.2,4.99,0.00,24.4,23.6,00.0,33.4,26.3,08.0,0000.0,0013.32,0005.28,0004.29
2021-11-18 20:31:00,,0829.2,4.99,0.00,24.4,23.6,00.0,33.4,26.3,08.0,0000.0,0012.80,0005.25,0004.28
2021-11-18 20:32:00,,0829.1,5.01,0.00,24.4,23.6,00.0,33.4,26.3,08.0,0000.0,0012.36,0005.22,0004.28
2021-11-18 20:33:00,,0829.1,5.00,0.00,24.5,23.6,00.0,33.4,26.3,08.0,0000.0,0011.94,0005.23,0004.28
2021-11-18 20:34:00,,0829.1,5.00,0.00,24.5,23.6,00.0,33.4,26.3,08.1,0000.0,0012.33,0005.22,0004.27
2021-11-18 20:35:00,,0829.1,5.00,0.00,24.5,23.6,00.0,33.4,26.3,08.0,0000.0,0012.51,0005.17,0004.27
2021-11-18 20:36:00,,0829.1,5.00,0.00,24.5,23.6,00.0,33.4,26.3,08.1,0000.0,0011.92,0005.11,0004.26
2021-11-18 20:37:00,,0829.1,5.01,0.00,24.5,23.6,00.0,33.4,26.3,08.1,0000.0,0012.29,0005.13,0004.24
2021-11-18 20:38:00,,0829.1,4.99,0.00,24.5,23.6,00.0,33.4,26.3,08.0,0000.0,0012.45,0005.13,0004.23
2021-11-18 20:39:00,,0829.1,5.01,0.00,24.5,23.6,00.0,33.4,26.3,08.4,0000.0,0013.00,0005.14,0004.25
2021-11-18 20:40:00,,0829.1,5.00,0.00,24.5,23.6,00.0,33.4,26.3,08.7,0000.0,0013.61,0005.28,0004.35
2021-11-18 20:41:00,,0829.1,5.01,0.00,24.5,23.6,00.0,33.5,26.3,08.7,0000.0,0014.69,0005.49,0004.47
2021-11-18 20:42:00,,0829.0,5.00,0.00,24.5,23.6,00.0,33.5,26.3,08.8,0000.0,0015.55,0005.67,0004.59
2021-11-18 20:43:00,,0829.0,5.00,0.00,24.5,23.6,00.0,33.5,26.3,08.7,0000.0,0016.25,0005.83,0004.72
2021-11-18 20:44:00,,0829.1,4.99,0.00,24.5,23.6,00.0,33.5,26.3,08.7,0000.0,0016.53,0006.00,0004.85
2021-11-18 20:45:00,,0829.0,5.00,0.00,24.5,23.6,00.0,33.5,26.3,08.8,0000.0,0017.62,0006.19,0004.98
2021-11-18 20:46:00,,0828.9,5.01,0.00,24.5,23.6,00.0,33.5,26.3,08.7,0000.0,0019.77,0006.36,0005.10
2021-11-18 20:47:00,,0828.8,5.00,0.00,24.5,23.6,00.0,33.5,26.3,08.7,0000.1,0021.48,0006.54,0005.22
2021-11-18 20:48:00,,0829.3,5.00,0.00,24.5,23.6,00.0,33.5,26.3,08.7,0000.6,0022.29,0006.74,0005.35
2021-11-18 20:49:00,,0829.0,5.00,0.00,24.5,23.6,00.0,33.5,26.3,08.7,0000.0,0023.45,0006.98,0005.51
2021-11-18 20:50:00,,0828.9,4.99,0.00,24.5,23.6,00.0,33.5,26.3,08.8,0000.0,0024.22,0007.17,0005.66
2021-11-18 20:51:00,,0828.8,5.01,0.00,24.5,23.6,00.0,33.5,26.3,08.8,0000.0,0024.51,0007.22,0005.73
2021-11-18 20:52:00,,0829.2,5.01,0.00,24.5,23.6,00.0,33.5,26.3,08.8,0000.0,0026.15,0007.24,0005.76
2021-11-18 20:53:00,,0829.1,4.99,0.00,24.5,23.6,00.0,33.5,26.3,08.7,0000.0,0026.66,0007.29,0005.78
2021-11-18 20:54:00,,0828.7,5.00,0.00,24.5,23.6,00.0,33.5,26.3,08.7,0000.0,0026.98,0007.39,0005.80
2021-11-18 20:55:00,,0829.2,5.01,0.00,24.5,23.6,00.0,33.5,26.3,08.7,0000.0,0028.61,0007.46,0005.82
2021-11-18 20:56:00,,0829.2,4.99,0.00,24.5,23.6,00.0,33.5,26.3,08.7,0000.6,0028.66,0007.50,0005.85
2021-11-18 20:57:00,,0828.7,5.01,0.00,24.5,23.6,00.0,33.5,26.3,08.7,0000.0,0027.04,0007.53,0005.88
2021-11-18 20:58:00,,0828.8,5.00,0.00,24.5,23.6,00.0,33.5,26.3,08.7,0000.0,0025.30,0007.58,0005.90
2021-11-18 20:59:00,,0828.7,5.00,0.00,24.5,23.6,00.0,33.5,26.3,08.6,0000.0,0024.47,0007.60,0005.91
